Tracking 31027 objects as of 19-Jul-2025
HD Live streaming from Space Station
objects crossing your sky now

STARLINK-3817

Track STARLINK-3817 now!
10-day predictions
STARLINK-3817 is classified as:


NORAD ID: 52367
Int'l Code: 2022-045AN
Perigee: 545.9 km
Apogee: 547.8 km
Inclination: 53.2 °
Period: 95.4 minutes
Semi major axis: 6917 km
RCS: Unknown
Launch date: April 29, 2022
Source: United States (US)
Launch site: AIR FORCE EASTERN TEST RANGE (AFETR)
Your satellite tracking list
FLOCK 4Q 34
Track 1 satellite(s)




NASA's NSSDC Master Catalog

Two Line Element Set (TLE):
1 52367U 22045AN  25199.29199206  .00000413  00000-0  44010-4 0  9991
2 52367  53.2166 161.3734 0001383  81.3307 278.7842 15.08839999180536
Source of the keplerian elements: AFSPC